Location: Bergheim
(50.9593°N, 6.6400°E)
Time: 10:52:26
(UTC+02:00)

ISS - Pass Details

Date: 23 May 2021
Orbit: 417 x 422 km, 51.6° (Epoch: 13 June)

Event Time Altitude Azimuth Distance (km) Brightness Sun altitude
Rises 00:32:52 0° 285° (WNW) 2,370 0.5 -17.4°
Reaches altitude 10° 00:35:00 10° 280° (W) 1,504 -0.7 -17.4°
Maximum altitude 00:38:17 51° 204° (SSW) 534 -3.6 -17.6°
Enters shadow 00:38:20 51° 200° (SSW) 534 -3.6 -17.6°
